Location: Monteux
(44.0348°N, 4.9972°E)
Time: 17:56:58
(UTC+00:00)

ISS - Pass Details

Date: 30 November 2020
Orbit: 418 x 419 km, 51.6° (Epoch: 18 January)

Event Time Altitude Azimuth Distance (km) Brightness Sun altitude
Rises 17:03:28 0° 288° (WNW) 2,368 1.0 -10.6°
Reaches altitude 10° 17:05:53 10° 305° (NW) 1,503 -0.4 -11.0°
Maximum altitude 17:08:35 22° 358° (N) 984 -2.1 -11.5°
Enters shadow 17:10:19 15° 38° (NE) 1,225 -1.9 -11.8°
